INTELSAT 18 (IS-18)

Last updated on Sun Jun 21 2026 00:03:05 GMT+0000 (Coordinated Universal Time)

1 37834U 11056A 26171.35634845 .00000048 00000+0 00000+0 0 9993 2 37834 0.0337 273.9541 0001818 176.4973 126.3906 1.00271683 53841
UTC large
Height (km)
Speed (km/s)
/
Latitude / Longitude
Inclination (degrees)
Orbital Period (minutes)
Azimuth
Elevation
Range (km)
Doppler Factor

Next 0 passes for location: London (51.5072 / 0.1276)

No passes found over London.
INTELSAT 18 (IS-18)